TimeCDT,TemperatureF,Dew PointF,Humidity,Sea Level PressureIn,VisibilityMPH,Wind Direction,Wind SpeedMPH,Gust SpeedMPH,PrecipitationIn,Events,Conditions,WindDirDegrees,DateUTC
12:15 AM,44.6,39.2,81,29.86,10.0,SE,9.2,-,N/A,,Clear,140,2012-10-21 05:15:00
12:35 AM,46.4,39.2,76,29.86,10.0,SE,9.2,-,N/A,,Clear,140,2012-10-21 05:35:00
12:55 AM,46.4,39.2,76,29.86,10.0,SE,9.2,-,N/A,,Clear,140,2012-10-21 05:55:00
1:15 AM,46.4,39.2,76,29.87,10.0,SE,6.9,-,N/A,,Clear,140,2012-10-21 06:15:00
1:35 AM,44.6,39.2,81,29.87,10.0,SE,6.9,-,N/A,,Clear,130,2012-10-21 06:35:00
1:55 AM,44.6,39.2,81,29.87,10.0,SE,6.9,-,N/A,,Clear,140,2012-10-21 06:55:00
2:15 AM,44.6,39.2,81,29.87,10.0,SE,5.8,-,N/A,,Clear,140,2012-10-21 07:15:00
2:35 AM,44.6,41.0,87,29.87,10.0,SE,8.1,-,N/A,,Clear,140,2012-10-21 07:35:00
2:55 AM,44.6,41.0,87,29.87,10.0,SE,8.1,-,N/A,,Clear,130,2012-10-21 07:55:00
3:15 AM,44.6,41.0,87,29.86,10.0,SE,8.1,-,N/A,,Clear,140,2012-10-21 08:15:00
3:35 AM,44.6,39.2,81,29.86,10.0,SSE,8.1,-,N/A,,Clear,150,2012-10-21 08:35:00
3:55 AM,44.6,39.2,81,29.85,10.0,SE,9.2,-,N/A,,Clear,140,2012-10-21 08:55:00
4:15 AM,44.6,39.2,81,29.85,10.0,SE,11.5,-,N/A,,Clear,130,2012-10-21 09:15:00
4:35 AM,44.6,39.2,81,29.85,10.0,SE,9.2,-,N/A,,Clear,140,2012-10-21 09:35:00
4:55 AM,44.6,39.2,81,29.86,10.0,SE,10.4,-,N/A,,Clear,140,2012-10-21 09:55:00
5:15 AM,44.6,39.2,81,29.86,10.0,SE,10.4,-,N/A,,Clear,130,2012-10-21 10:15:00
5:35 AM,42.8,39.2,87,29.86,10.0,ESE,9.2,-,N/A,,Clear,120,2012-10-21 10:35:00
5:55 AM,42.8,39.2,87,29.86,10.0,SE,10.4,-,N/A,,Clear,130,2012-10-21 10:55:00
6:15 AM,42.8,39.2,87,29.87,7.0,ESE,8.1,-,N/A,,Clear,120,2012-10-21 11:15:00
6:35 AM,42.8,39.2,87,29.86,7.0,ESE,9.2,-,N/A,,Clear,120,2012-10-21 11:35:00
6:55 AM,44.6,39.2,81,29.86,10.0,SE,8.1,-,N/A,,Clear,130,2012-10-21 11:55:00
7:15 AM,44.6,39.2,81,29.87,10.0,ESE,6.9,-,N/A,,Clear,120,2012-10-21 12:15:00
7:35 AM,44.6,39.2,81,29.87,7.0,ESE,8.1,-,N/A,,Clear,120,2012-10-21 12:35:00
7:55 AM,44.6,39.2,81,29.87,7.0,ESE,10.4,-,N/A,,Clear,120,2012-10-21 12:55:00
8:15 AM,44.6,41.0,87,29.86,7.0,SE,11.5,-,N/A,,Clear,130,2012-10-21 13:15:00
8:35 AM,46.4,42.8,87,29.86,7.0,SE,11.5,-,N/A,,Clear,130,2012-10-21 13:35:00
8:55 AM,48.2,42.8,82,29.87,10.0,SE,12.7,-,N/A,,Clear,130,2012-10-21 13:55:00
9:15 AM,50.0,44.6,82,29.87,10.0,SE,11.5,-,N/A,,Clear,140,2012-10-21 14:15:00
9:35 AM,51.8,44.6,76,29.86,10.0,SE,13.8,-,N/A,,Clear,140,2012-10-21 14:35:00
9:55 AM,51.8,44.6,76,29.86,10.0,SE,12.7,19.6,N/A,,Clear,140,2012-10-21 14:55:00
10:15 AM,53.6,46.4,77,29.86,10.0,SE,12.7,-,N/A,,Clear,140,2012-10-21 15:15:00
10:35 AM,55.4,46.4,72,29.85,10.0,SE,15.0,18.4,N/A,,Clear,140,2012-10-21 15:35:00
10:55 AM,55.4,48.2,77,29.86,10.0,SE,13.8,-,N/A,,Clear,140,2012-10-21 15:55:00
11:15 AM,57.2,48.2,72,29.86,10.0,SE,15.0,-,N/A,,Clear,140,2012-10-21 16:15:00
11:35 AM,59.0,48.2,67,29.86,10.0,SE,11.5,-,N/A,,Clear,140,2012-10-21 16:35:00
11:55 AM,60.8,50.0,68,29.85,10.0,SE,13.8,-,N/A,,Clear,140,2012-10-21 16:55:00
12:15 PM,62.6,50.0,63,29.85,10.0,SSE,17.3,-,N/A,,Clear,150,2012-10-21 17:15:00
12:35 PM,64.4,50.0,59,29.84,10.0,SSE,15.0,-,N/A,,Clear,150,2012-10-21 17:35:00
12:55 PM,64.4,50.0,59,29.84,10.0,SSE,17.3,21.9,N/A,,Clear,150,2012-10-21 17:55:00
1:15 PM,66.2,51.8,60,29.83,10.0,SSE,16.1,-,N/A,,Clear,160,2012-10-21 18:15:00
1:35 PM,68.0,50.0,52,29.83,10.0,SSE,16.1,21.9,N/A,,Clear,160,2012-10-21 18:35:00
1:55 PM,68.0,51.8,56,29.83,10.0,SSE,15.0,19.6,N/A,,Clear,160,2012-10-21 18:55:00
2:15 PM,69.8,51.8,53,29.83,10.0,SSE,13.8,18.4,N/A,,Clear,150,2012-10-21 19:15:00
2:35 PM,69.8,51.8,53,29.82,10.0,SE,16.1,-,N/A,,Clear,140,2012-10-21 19:35:00
2:55 PM,71.6,51.8,50,29.83,10.0,SSE,12.7,-,N/A,,Clear,150,2012-10-21 19:55:00
3:15 PM,71.6,51.8,50,29.83,10.0,South,13.8,19.6,N/A,,Clear,170,2012-10-21 20:15:00
3:35 PM,71.6,51.8,50,29.82,10.0,SSE,17.3,-,N/A,,Clear,160,2012-10-21 20:35:00
3:55 PM,71.6,51.8,50,29.82,10.0,SSE,17.3,-,N/A,,Clear,160,2012-10-21 20:55:00
4:15 PM,71.6,53.6,53,29.82,10.0,SSE,11.5,-,N/A,,Clear,160,2012-10-21 21:15:00
4:35 PM,71.6,53.6,53,29.83,10.0,SSE,13.8,-,N/A,,Clear,160,2012-10-21 21:35:00
4:55 PM,71.6,53.6,53,29.83,10.0,SSE,11.5,-,N/A,,Clear,150,2012-10-21 21:55:00
5:15 PM,71.6,53.6,53,29.83,10.0,SSE,10.4,-,N/A,,Clear,150,2012-10-21 22:15:00
5:35 PM,69.8,53.6,56,29.83,10.0,SE,8.1,-,N/A,,Clear,140,2012-10-21 22:35:00
5:55 PM,68.0,53.6,60,29.83,10.0,SE,9.2,-,N/A,,Clear,140,2012-10-21 22:55:00
6:15 PM,66.2,53.6,64,29.83,10.0,SE,8.1,-,N/A,,Clear,130,2012-10-21 23:15:00
6:35 PM,64.4,53.6,68,29.84,10.0,SE,8.1,-,N/A,,Clear,140,2012-10-21 23:35:00
6:55 PM,62.6,53.6,72,29.85,10.0,SE,6.9,-,N/A,,Clear,130,2012-10-21 23:55:00
7:15 PM,62.6,53.6,72,29.86,10.0,SE,5.8,-,N/A,,Clear,130,2012-10-22 00:15:00
7:35 PM,60.8,53.6,77,29.86,10.0,SE,6.9,-,N/A,,Clear,130,2012-10-22 00:35:00
7:55 PM,60.8,53.6,77,29.87,10.0,SE,4.6,-,N/A,,Clear,130,2012-10-22 00:55:00
8:15 PM,60.8,51.8,72,29.87,10.0,ESE,6.9,-,N/A,,Clear,120,2012-10-22 01:15:00
8:35 PM,57.2,51.8,82,29.88,10.0,ESE,6.9,-,N/A,,Clear,110,2012-10-22 01:35:00
8:55 PM,57.2,50.0,77,29.88,10.0,East,6.9,-,N/A,,Clear,100,2012-10-22 01:55:00
9:15 PM,57.2,51.8,82,29.88,10.0,ESE,8.1,-,N/A,,Clear,110,2012-10-22 02:15:00
9:35 PM,57.2,51.8,82,29.88,10.0,ESE,8.1,-,N/A,,Clear,110,2012-10-22 02:35:00
9:55 PM,57.2,51.8,82,29.89,10.0,ESE,5.8,-,N/A,,Mostly Cloudy,120,2012-10-22 02:55:00
10:15 PM,57.2,51.8,82,29.89,10.0,ESE,6.9,-,N/A,,Overcast,110,2012-10-22 03:15:00
10:35 PM,59.0,51.8,77,29.89,10.0,ESE,8.1,-,N/A,,Mostly Cloudy,120,2012-10-22 03:35:00
10:55 PM,59.0,51.8,77,29.89,10.0,ESE,8.1,-,N/A,,Scattered Clouds,110,2012-10-22 03:55:00
11:15 PM,57.2,51.8,82,29.88,10.0,ESE,9.2,-,N/A,,Clear,120,2012-10-22 04:15:00
11:35 PM,59.0,51.8,77,29.88,10.0,ESE,9.2,-,N/A,,Scattered Clouds,120,2012-10-22 04:35:00
11:55 PM,59.0,51.8,77,29.88,10.0,ESE,9.2,-,N/A,,Scattered Clouds,120,2012-10-22 04:55:00